Regional Weather Roundup
Issued by NWS Sterling, VA

Home | Current Version | Previous Version | Graphics & Text | Print | Product List | Glossary On
Versions: 1 2 3 4 5 6 7 8 9 10 11 12 13 14 15 16 17 18 19 20 21 22 23 24 25 26 27 28 29 30 31 32 33 34 35 36 37 38 39 40 41 42 43 44 45 46 47 48 49 50
000
ASUS41 KLWX 281510
RWRLWX

REGIONAL WEATHER ROUNDUP
NATIONAL WEATHER SERVICE BALTIMORE MD/WASHINGTON DC
1000 AM EST FRI NOV 28 2014

Note: "FAIR" indicates few or no clouds below 12,000 feet
with no significant weather and/or obstructions to visibility.
 TC=TEMPERATURE CELSIUS

 * =Non NWS site. Station does not report precipitation (e.g. rain,
    snow, etc.), thunder, or fog.

DCZ001-MDZ009-015-VAZ040>042-051-053>054-281600-
WASHINGTON METRO

CITY           SKY/WX    TMP DP  RH WIND       PRES   REMARKS
WASHINGTON NAT PTSUNNY   39  20  46 NW10G18   30.33R
DULLES         MOSUNNY   35  19  52 NW18G26   30.33R WCI  24
ANDREWS AFB    MIX PCPN  38  22  52 NW14      30.30R
FT BELVOIR     MOSUNNY   38  18  43 W17       30.33R WCI  28
QUANTICO       SUNNY     38  18  44 N17G26    30.35R WCI  28
COLLEGE PARK*  CLOUDY    36  27  69 W8        30.32R
LEESBURG*      CLOUDY    32  28  86 N13G22    30.33R WCI  22
MANASSAS*      SUNNY     37  21  52 NW17G24   30.32S WCI  28
GAITHERSBURG*  PTSUNNY   32  25  74 NW8       30.34R WCI  25

$$

MDZ006>007-011-014-281600-
BALTIMORE METRO

CITY           SKY/WX    TMP DP  RH WIND       PRES   REMARKS
BWI AIRPORT    MOSUNNY   37  20  50 NW10G18   30.30R
MD SCIENCE CTR   N/A     36  17  46 MISG      30.31R
MARTIN STATE   MOSUNNY   39  21  48 NW13      30.31R
ANNAPOLIS      SUNNY     38  22  52 NW15G26   30.30R
FORT MEADE*    MOSUNNY   36  25  64 NW8G18    30.33R

$$

MDZ012-015-019>023-281600-
MARYLAND EASTERN SHORE

CITY           SKY/WX    TMP DP  RH WIND       PRES   REMARKS
OCEAN CITY     SUNNY     38  24  57 NW13      30.26S
SALISBURY      SUNNY     41  24  51 NW21G26   30.27R
BAY BRIDGE AP*   N/A     37  21  52 NW15G25   30.30R WCI  28
CAMBRIDGE*     SUNNY     39  25  56 NW13G24   30.28R
EASTON*        SUNNY     39  27  60 NW15G23   30.32R

$$

MDZ017>025-281600-
SOUTHERN MARYLAND

CITY           SKY/WX    TMP DP  RH WIND       PRES   REMARKS
PATUXENT RIVER MOSUNNY   38  22  52 NW17G26   30.30R WCI  28
ST INIGOES     SUNNY     39  21  48 NW10G18   30.30R
LEONARDTOWN*   SUNNY     37  21  52 NW14G21   30.31R WCI  29

$$

MDZ003>005-281600-
NORTH CENTRAL MARYLAND

CITY           SKY/WX    TMP DP  RH WIND       PRES   REMARKS
FREDERICK*     CLOUDY   N/A N/A N/A NW12      30.34R
HAGERSTOWN APT SUNNY     33  17  51 NW20      30.29R WCI  21
WESTMINSTER*   PTSUNNY   32  21  64 NW7       30.26S

$$

MDZ501>502-281600-
WESTERN MARYLAND

CITY           SKY/WX    TMP DP  RH WIND       PRES   REMARKS
OAKLAND*       CLOUDY    21 N/A N/A W8        30.18R FOG     WCI  12
CUMBERLAND*    PTSUNNY   32  23  69 NW3       30.34S

$$

VAZ025>031-281600-
SHENANDOAH VALLEY

CITY           SKY/WX    TMP DP  RH WIND       PRES   REMARKS
WINCHESTER*    CLOUDY    34  18  51 NW10      30.31R WCI  26
FRONT ROYAL*   CLOUDY    34  19  55 W7        30.30R
LURAY*         FAIR      36  21  55 W6        30.31S
NEW MARKET*    CLOUDY    31  19  60 W3        30.32R
STAUNTON*      MOSUNNY   32  16  51 NW8       30.33R WCI  25
WAYNESBORO*    FAIR      29  13  51 W6        30.30S

$$

WVZ021-048>050-054>055-281600-
EASTERN WEST VIRGINIA PANHANDLE

CITY           SKY/WX    TMP DP  RH WIND       PRES   REMARKS
MARTINSBURG    PTSUNNY   35  20  54 N12       30.31R WCI  27
PETERSBURG*    CLOUDY    31  17  55 N3        30.34R

$$

VAZ036>039-050-281600-
CENTRAL FOOTHILLS

CITY           SKY/WX    TMP DP  RH WIND       PRES   REMARKS
CHARLOTTESVILL MOSUNNY   36  14  40 N12       30.33R WCI  28
CULPEPER*      SUNNY     37  19  48 NW8       30.33F
ORANGE*        PTSUNNY   36  19  51 NW8G17    30.35R
GORDONSVILLE*  PTSUNNY   35  18  49 NW3       30.33S
WARRENTON*     FAIR      39  27  62 NW10      30.32S

$$

VAZ055>057-281600-
NORTH AND CENTRAL PIEDMONT

CITY           SKY/WX    TMP DP  RH WIND       PRES   REMARKS
FREDERICKSBRG* SUNNY     39  22  52 NW18G26   30.32F
STAFFORD*      SUNNY     36  20  52 NW9G18    30.37S

$$

NCZ024-NYZ072-PAZ021-071-VAZ022-071-281600-
OTHER REGIONAL OBSERVATIONS

CITY           SKY/WX    TMP DP  RH WIND       PRES   REMARKS
NEW YORK CITY  SUNNY     34  18  52 VRB6G23   30.20R
PHILADELPHIA   MOSUNNY   37  21  52 NW14      30.26R WCI  28
PITTSBURGH     MOSUNNY   25  14  63 NW20      30.32R WCI  11
ROANOKE        PTSUNNY   31  16  54 NW10      30.37R WCI  22
RICHMOND       MOSUNNY   40  24  53 NW10      30.34R
RALEIGH        MOSUNNY   38  20  48 N12G17    30.38R

$$

ANZ530>537-281600-
MARINE OBSERVATIONS

STATION/POSITION TIME  TEMP    WIND        PRES
                       AIR SEA DIR/SP/G
                 (UTC) (F)     (DEG/KT/KT) (MB)
THOMAS PT LIGHT  1500   37 45  320/ 18/ 21 1026.9R
BALT KEY BRIDGE  1500   36     290/ 17/ 20 1025.7R
COVE POINT       1500   36     340/ 16/ 21 1025.8R
LEWISETTA        1500   38 45  320/ 17/ 21 1026.1F
SOLOMONS ISLAND  1500      47                N/A
PINEY POINT      1500          340/ 20/ 23   N/A

$$



USA.gov is the U.S. government's official web portal to all federal, state and local government web resources and services.